Miscellaneous Local Product
Issued by NWS North Platte, NE

Home | Current Version | Previous Version | Text Only | Print | Product List | Glossary On
Versions: 1 2 3 4 5 6 7 8 9 10 11 12 13 14 15 16 17 18 19 20 21 22 23 24 25 26 27 28 29 30 31 32 33 34 35 36 37 38 39 40 41 42 43 44 45 46 47 48 49 50
000
AXUS43 KLBF 231610
MISLBF


WESTERN AND NORTH CENTRAL NEBRASKA HOURLY WEATHER ROUNDUP
NATIONAL WEATHER SERVICE NORTH PLATTE NE
1100 AM CDT THU APR 23 2015

***STATIONS NOT REPORTING VARIABLES SUCH AS SKY/WEATHER OR
PRESSURE ARE PROVIDED BY THE NEBRASKA DEPARTMENT OF
ROADS...RAWS...AND APRS NETWORKS...AND ARE NOT UNDER
NATIONAL WEATHER SERVICE QUALITY CONTROL***

...OBSERVATIONS IN AND NEAR THE EASTERN PANHANDLE OF NEBRASKA...

CITY           SKY/WX    TMP DP  RH WIND       PRES   REMARKS
PINE RIDGE     SUNNY     55  40  56 NE3       29.82F
CHADRON        SUNNY     51  37  58 NE5       29.81F
ALLIANCE       SUNNY     58  43  57 S9        29.83S
SIDNEY         MOSUNNY   58  45  62 S9        29.85F
WHITECLAY        N/A     55  39  54 S5          N/A
CRESCENT LAKE    N/A     55  45  68 S9G16       N/A
BIG SPRINGS      N/A     56  48  75 S16         N/A
$$

...OBSERVATIONS IN NORTH CENTRAL NEBRASKA...

CITY           SKY/WX    TMP DP  RH WIND       PRES   REMARKS
VALENTINE      SUNNY     53  35  50 S16       29.89F
THEDFORD       CLOUDY    52  41  65 S15G23    29.92S
AINSWORTH      CLOUDY    51  33  50 S20G25    29.92S
O`NEILL        CLOUDY    53  31  44 S13G23    29.99F
ORD            PTSUNNY   55  31  39 S17       29.98F
BROKEN BOW     CLOUDY    57  35  43 S18G25    29.96S
BROWNLEE         N/A     54  38  55 S18         N/A
VALENTINE NWR    N/A     49  33  53 S16         N/A
SPRINGVIEW       N/A     52  34  50 S9G18       N/A
HALSEY           N/A     49  33  54 SE8G16      N/A
BREWSTER         N/A     55  35  48 S20         N/A
ROSE             N/A     54  35  49 E20         N/A
NEWPORT          N/A     49  31  49 S13         N/A
SARGENT          N/A     54  36  50 S6          N/A
COMSTOCK         N/A     61  37  41 S12         N/A
EWING            N/A     55  31  40 S9G16       N/A
$$

...OBSERVATIONS IN SOUTHWEST NEBRASKA AND FAR NORTHEAST COLORADO...

CITY           SKY/WX    TMP DP  RH WIND       PRES   REMARKS
WRAY           CLOUDY    51  45  78 SE12      29.89S
HOLYOKE        FAIR      59  46  63 S14       29.87F
IMPERIAL       CLOUDY    52  44  74 S18       29.90S
OGALLALA       PTSUNNY   55  46  71 S12       29.88F
NORTH PLATTE   CLOUDY    52  40  63 S10       29.93F
MCCOOK         CLOUDY    56  41  57 S12       29.94F
LEXINGTON      CLOUDY    55  39  54 SE15      29.97S
PAXTON           N/A     51  45  80 S12         N/A
SUTHERLAND       N/A     47  42  82 S14         N/A
BRADY            N/A     51  40  66 CALM        N/A
GOTHENBURG       N/A     49  34  57 S8          N/A
CALLAWAY         N/A     50  39  65 S20         N/A
$$

...NORTH PLATTE AREA...

CITY           SKY/WX    TMP DP  RH WIND       PRES   REMARKS
AIRPORT        CLOUDY    52  40  63 S10       29.93F
DOWNTOWN         N/A     53  42  67 S6G14       N/A
$$

...SOME WEATHER OBSERVATIONS FROM AROUND THE REGION...

CITY           SKY/WX    TMP DP  RH WIND       PRES   REMARKS
DENVER         MOSUNNY   64  31  28 SW8       29.88S
LARAMIE        MOSUNNY   51  31  46 SW9       29.91F
CHEYENNE       PTSUNNY   61  27  27 W13       29.87F
SCOTTSBLUFF    MOSUNNY   56  40  55 E5        29.82F
RAPID CITY     SUNNY     47  29  49 SE10      29.83F
PIERRE         SUNNY     54  21  27 SE24G32   29.91F
WINNER         FAIR      55  30  38 S20G28    29.92F
SIOUX FALLS    SUNNY     50  16  25 VRB7      30.08F
OMAHA          MOSUNNY   55  24  30 S10       30.10F
GRAND ISLAND   SUNNY     57  29  34 S16       30.03F
KANSAS CITY    MOSUNNY   58  25  28 SE5       30.11R
WICHITA        PTSUNNY   58  30  34 E15       30.03S
HAYS           SUNNY     57  36  44 SE16      30.00S
LIBERAL        CLOUDY    57  48  72 SE13      29.98R
GOODLAND       CLOUDY    50  47  89 S23G29    29.91F
$$



USA.gov is the U.S. government's official web portal to all federal, state and local government web resources and services.